Location: Nairn
(57.5833°N, 3.8667°W)
Time: 13:41:24
(UTC+00:00)

Vanguard 1 - Pass Details

Date: 04 December 2020
Orbit: 648 x 3834 km, 34.3° (Epoch: 17 January)

Event Time Altitude Azimuth Distance (km) Brightness Sun altitude
Exits shadow 05:42:55 - 210° (SSW) 3,236 12.5 -21.7°
Reaches altitude 10° 05:46:30 10° 182° (S) 2,999 12.6 -21.2°
Maximum altitude 05:48:15 11° 167° (SSE) 3,130 12.9 -21.0°
Drops below altitude 10° 05:50:13 10° 153° (SSE) 3,436 13.3 -20.7°
Sets 05:57:31 0° 123° (ESE) 5,310 15.0 -19.8°
